Time,TemperatureF,DewpointF,PressureIn,WindDirection,WindDirectionDegrees,WindSpeedMPH,WindSpeedGustMPH,Humidity,HourlyPrecipIn,Conditions,Clouds,dailyrainin,SoftwareType,DateUTC
2013-01-13 00:10:00,34.5,32.0,29.84,NE,46,4.0,6.0,91,0.06,,,0.02,weatherlink.com 1.10,2013-01-13 06:10:00,
2013-01-13 00:25:00,33.8,31.0,29.86,West,280,1.0,10.0,90,0.05,,,0.02,weatherlink.com 1.10,2013-01-13 06:25:00,
2013-01-13 00:41:00,33.4,31.0,29.86,NNW,346,6.0,11.0,90,0.03,,,0.02,weatherlink.com 1.10,2013-01-13 06:41:00,
2013-01-13 00:56:00,33.3,31.0,29.85,NNW,344,3.0,8.0,90,0.02,,,0.02,weatherlink.com 1.10,2013-01-13 06:56:00,
2013-01-13 01:11:00,33.2,31.0,29.85,WNW,295,3.0,9.0,91,0.00,,,0.02,weatherlink.com 1.10,2013-01-13 07:11:00,
2013-01-13 01:26:00,33.2,31.0,29.86,WNW,286,3.0,11.0,91,0.00,,,0.02,weatherlink.com 1.10,2013-01-13 07:26:00,
2013-01-13 01:41:00,33.0,31.0,29.85,NNE,18,2.0,8.0,91,0.00,,,0.02,weatherlink.com 1.10,2013-01-13 07:41:00,
2013-01-13 01:56:00,33.0,31.0,29.86,North,5,1.0,9.0,91,0.01,,,0.03,weatherlink.com 1.10,2013-01-13 07:56:00,
2013-01-13 02:11:00,33.0,31.0,29.87,NNE,19,2.0,11.0,91,0.01,,,0.03,weatherlink.com 1.10,2013-01-13 08:11:00,
2013-01-13 02:26:00,33.0,31.0,29.86,North,11,8.0,8.0,91,0.01,,,0.03,weatherlink.com 1.10,2013-01-13 08:26:00,
2013-01-13 02:41:00,33.0,31.0,29.86,NNW,336,3.0,7.0,91,0.01,,,0.03,weatherlink.com 1.10,2013-01-13 08:41:00,
2013-01-13 02:56:00,32.9,31.0,29.86,North,9,0.0,8.0,91,0.00,,,0.03,weatherlink.com 1.10,2013-01-13 08:56:00,
2013-01-13 03:11:00,32.8,31.0,29.85,NNW,341,1.0,9.0,91,0.00,,,0.03,weatherlink.com 1.10,2013-01-13 09:11:00,
2013-01-13 03:26:00,32.8,31.0,29.86,NNE,32,3.0,7.0,91,0.00,,,0.03,weatherlink.com 1.10,2013-01-13 09:26:00,
2013-01-13 03:41:00,32.9,31.0,29.88,West,271,0.0,6.0,91,0.00,,,0.03,weatherlink.com 1.10,2013-01-13 09:41:00,
2013-01-13 03:56:00,32.9,31.0,29.86,North,355,0.0,5.0,92,0.00,,,0.03,weatherlink.com 1.10,2013-01-13 09:56:00,
2013-01-13 04:11:00,33.0,31.0,29.86,ENE,64,3.0,5.0,92,0.00,,,0.03,weatherlink.com 1.10,2013-01-13 10:11:00,
2013-01-13 04:26:00,33.1,31.0,29.88,NNE,33,1.0,6.0,92,0.00,,,0.03,weatherlink.com 1.10,2013-01-13 10:26:00,
2013-01-13 04:41:00,33.2,31.0,29.88,WNW,286,1.0,4.0,92,0.00,,,0.03,weatherlink.com 1.10,2013-01-13 10:41:00,
2013-01-13 04:56:00,33.3,31.0,29.90,WNW,292,3.0,5.0,92,0.00,,,0.03,weatherlink.com 1.10,2013-01-13 10:56:00,
2013-01-13 05:11:00,33.2,31.0,29.90,WNW,295,4.0,6.0,92,0.00,,,0.03,weatherlink.com 1.10,2013-01-13 11:11:00,
2013-01-13 05:26:00,33.0,31.0,29.91,WNW,287,1.0,7.0,92,0.00,,,0.03,weatherlink.com 1.10,2013-01-13 11:26:00,
2013-01-13 05:41:00,32.9,31.0,29.93,WNW,287,0.0,5.0,92,0.00,,,0.03,weatherlink.com 1.10,2013-01-13 11:41:00,
2013-01-13 05:56:00,32.8,31.0,29.93,WNW,288,3.0,6.0,92,0.00,,,0.03,weatherlink.com 1.10,2013-01-13 11:56:00,
2013-01-13 06:11:00,32.6,31.0,29.92,WNW,303,2.0,7.0,92,0.00,,,0.03,weatherlink.com 1.10,2013-01-13 12:11:00,
2013-01-13 06:26:00,32.3,30.0,29.92,WNW,294,5.0,6.0,92,0.00,,,0.03,weatherlink.com 1.10,2013-01-13 12:26:00,
2013-01-13 06:41:00,32.2,30.0,29.93,WSW,257,2.0,6.0,92,0.01,,,0.04,weatherlink.com 1.10,2013-01-13 12:41:00,
2013-01-13 06:56:00,31.9,30.0,29.95,West,260,4.0,8.0,93,0.01,,,0.04,weatherlink.com 1.10,2013-01-13 12:56:00,
2013-01-13 07:11:00,31.6,30.0,29.95,WNW,298,1.0,10.0,92,0.01,,,0.04,weatherlink.com 1.10,2013-01-13 13:11:00,
2013-01-13 07:26:00,31.1,29.0,29.95,NW,307,5.0,7.0,92,0.01,,,0.04,weatherlink.com 1.10,2013-01-13 13:26:00,
2013-01-13 07:41:00,30.7,29.0,29.95,NW,311,2.0,9.0,92,0.00,,,0.04,weatherlink.com 1.10,2013-01-13 13:41:00,
2013-01-13 07:56:00,30.5,29.0,29.96,NW,316,2.0,7.0,92,0.00,,,0.04,weatherlink.com 1.10,2013-01-13 13:56:00,
2013-01-13 08:11:00,30.3,28.0,29.97,NW,326,1.0,10.0,92,0.00,,,0.04,weatherlink.com 1.10,2013-01-13 14:11:00,
2013-01-13 08:27:00,30.1,28.0,29.98,NW,324,0.0,7.0,92,0.00,,,0.04,weatherlink.com 1.10,2013-01-13 14:27:00,
2013-01-13 08:42:00,29.9,28.0,29.96,NW,312,2.0,8.0,92,0.00,,,0.04,weatherlink.com 1.10,2013-01-13 14:42:00,
2013-01-13 08:57:00,29.8,28.0,29.97,WNW,285,1.0,8.0,92,0.00,,,0.04,weatherlink.com 1.10,2013-01-13 14:57:00,
2013-01-13 09:12:00,29.6,28.0,29.90,West,263,5.0,9.0,92,0.00,,,0.04,weatherlink.com 1.10,2013-01-13 15:12:00,
2013-01-13 09:27:00,29.7,28.0,30.02,West,263,6.0,10.0,92,0.00,,,0.04,weatherlink.com 1.10,2013-01-13 15:27:00,
2013-01-13 09:42:00,29.1,27.0,30.03,WSW,255,10.0,13.0,91,0.00,,,0.04,weatherlink.com 1.10,2013-01-13 15:42:00,
2013-01-13 09:57:00,28.9,27.0,30.02,WNW,294,8.0,8.0,91,0.00,,,0.04,weatherlink.com 1.10,2013-01-13 15:57:00,
2013-01-13 10:12:00,28.9,27.0,30.02,NNW,335,6.0,10.0,91,0.00,,,0.04,weatherlink.com 1.10,2013-01-13 16:12:00,
2013-01-13 10:27:00,29.0,27.0,29.98,West,272,1.0,8.0,91,0.00,,,0.04,weatherlink.com 1.10,2013-01-13 16:27:00,
2013-01-13 10:42:00,29.3,27.0,29.97,NNW,346,0.0,7.0,91,0.00,,,0.04,weatherlink.com 1.10,2013-01-13 16:42:00,
2013-01-13 10:57:00,29.7,28.0,29.97,WNW,299,2.0,6.0,92,0.00,,,0.04,weatherlink.com 1.10,2013-01-13 16:57:00,
2013-01-13 11:12:00,29.6,27.0,29.97,North,5,1.0,9.0,91,0.00,,,0.04,weatherlink.com 1.10,2013-01-13 17:12:00,
2013-01-13 11:27:00,29.2,27.0,29.95,NE,38,2.0,7.0,90,0.00,,,0.04,weatherlink.com 1.10,2013-01-13 17:27:00,
2013-01-13 11:42:00,29.0,27.0,29.94,North,5,4.0,7.0,90,0.00,,,0.04,weatherlink.com 1.10,2013-01-13 17:42:00,
2013-01-13 11:57:00,28.8,27.0,29.96,NW,324,2.0,10.0,91,0.00,,,0.04,weatherlink.com 1.10,2013-01-13 17:57:00,
2013-01-13 12:12:00,28.2,26.0,30.02,WNW,291,7.0,14.0,90,0.00,,,0.04,weatherlink.com 1.10,2013-01-13 18:12:00,
2013-01-13 12:27:00,27.5,25.0,29.98,NNW,340,1.0,9.0,90,0.00,,,0.04,weatherlink.com 1.10,2013-01-13 18:27:00,
2013-01-13 12:42:00,27.4,25.0,30.01,NW,318,6.0,11.0,90,0.00,,,0.04,weatherlink.com 1.10,2013-01-13 18:42:00,
2013-01-13 12:57:00,27.0,25.0,30.01,West,272,0.0,9.0,90,0.00,,,0.04,weatherlink.com 1.10,2013-01-13 18:57:00,
2013-01-13 13:12:00,27.0,25.0,30.00,WNW,301,5.0,12.0,91,0.00,,,0.04,weatherlink.com 1.10,2013-01-13 19:12:00,
2013-01-13 13:27:00,27.0,25.0,29.95,WNW,298,2.0,7.0,91,0.00,,,0.04,weatherlink.com 1.10,2013-01-13 19:27:00,
2013-01-13 13:42:00,27.1,25.0,29.98,West,277,2.0,10.0,90,0.00,,,0.04,weatherlink.com 1.10,2013-01-13 19:42:00,
2013-01-13 13:57:00,26.7,24.0,30.00,WNW,290,1.0,8.0,89,0.00,,,0.04,weatherlink.com 1.10,2013-01-13 19:57:00,
2013-01-13 14:12:00,26.7,24.0,30.01,West,275,5.0,9.0,89,0.00,,,0.04,weatherlink.com 1.10,2013-01-13 20:12:00,
2013-01-13 14:27:00,26.1,23.0,30.00,NNW,338,0.0,10.0,88,0.00,,,0.04,weatherlink.com 1.10,2013-01-13 20:27:00,
2013-01-13 14:42:00,25.9,23.0,30.00,West,275,1.0,8.0,87,0.00,,,0.04,weatherlink.com 1.10,2013-01-13 20:42:00,
2013-01-13 14:57:00,25.5,22.0,30.03,West,279,5.0,15.0,87,0.00,,,0.04,weatherlink.com 1.10,2013-01-13 20:57:00,
2013-01-13 15:12:00,25.3,22.0,30.03,WNW,298,5.0,9.0,88,0.00,,,0.04,weatherlink.com 1.10,2013-01-13 21:12:00,
2013-01-13 15:27:00,25.1,22.0,30.04,WNW,284,6.0,14.0,87,0.00,,,0.04,weatherlink.com 1.10,2013-01-13 21:27:00,
2013-01-13 15:42:00,25.0,21.0,30.05,WNW,300,0.0,11.0,86,0.00,,,0.04,weatherlink.com 1.10,2013-01-13 21:42:00,
2013-01-13 15:57:00,24.8,21.0,30.06,WNW,302,7.0,9.0,85,0.00,,,0.04,weatherlink.com 1.10,2013-01-13 21:57:00,
2013-01-13 16:12:00,24.5,21.0,30.07,West,259,6.0,8.0,85,0.00,,,0.04,weatherlink.com 1.10,2013-01-13 22:12:00,
2013-01-13 16:28:00,24.2,20.0,30.07,NW,306,3.0,11.0,85,0.00,,,0.04,weatherlink.com 1.10,2013-01-13 22:28:00,
2013-01-13 16:43:00,24.1,21.0,30.08,West,272,5.0,10.0,86,0.00,,,0.04,weatherlink.com 1.10,2013-01-13 22:43:00,
2013-01-13 16:58:00,23.8,20.0,30.10,West,269,4.0,9.0,85,0.00,,,0.04,weatherlink.com 1.10,2013-01-13 22:58:00,
2013-01-13 17:13:00,23.5,19.0,30.11,WNW,287,5.0,11.0,84,0.00,,,0.04,weatherlink.com 1.10,2013-01-13 23:13:00,
2013-01-13 17:28:00,23.2,19.0,30.13,WNW,286,4.0,12.0,85,0.00,,,0.04,weatherlink.com 1.10,2013-01-13 23:28:00,
2013-01-13 17:43:00,22.5,18.0,30.12,West,277,2.0,17.0,83,0.00,,,0.04,weatherlink.com 1.10,2013-01-13 23:43:00,
2013-01-13 17:58:00,22.1,18.0,30.13,NNW,340,2.0,14.0,83,0.00,,,0.04,weatherlink.com 1.10,2013-01-13 23:58:00,
2013-01-13 18:13:00,21.8,17.0,30.14,SW,236,2.0,15.0,82,0.00,,,0.04,weatherlink.com 1.10,2013-01-14 00:13:00,
2013-01-13 18:28:00,21.5,17.0,30.15,West,279,4.0,14.0,83,0.00,,,0.04,weatherlink.com 1.10,2013-01-14 00:28:00,
2013-01-13 18:43:00,21.0,16.0,30.16,WSW,252,3.0,15.0,82,0.00,,,0.04,weatherlink.com 1.10,2013-01-14 00:43:00,
2013-01-13 18:58:00,20.4,15.0,30.16,West,272,17.0,17.0,80,0.00,,,0.04,weatherlink.com 1.10,2013-01-14 00:58:00,
2013-01-13 19:13:00,20.0,15.0,30.16,WNW,290,5.0,16.0,80,0.00,,,0.04,weatherlink.com 1.10,2013-01-14 01:13:00,
2013-01-13 19:28:00,19.7,15.0,30.17,WNW,288,7.0,17.0,81,0.00,,,0.04,weatherlink.com 1.10,2013-01-14 01:28:00,
2013-01-13 19:43:00,19.4,17.0,30.17,West,261,1.0,13.0,89,0.00,,,0.04,weatherlink.com 1.10,2013-01-14 01:43:00,
2013-01-13 19:58:00,19.4,15.0,30.18,WNW,284,3.0,13.0,82,0.00,,,0.04,weatherlink.com 1.10,2013-01-14 01:58:00,
2013-01-13 20:13:00,19.2,14.0,30.18,West,265,6.0,13.0,81,0.00,,,0.04,weatherlink.com 1.10,2013-01-14 02:13:00,
2013-01-13 20:28:00,19.0,14.0,30.20,WNW,290,5.0,14.0,81,0.00,,,0.04,weatherlink.com 1.10,2013-01-14 02:28:00,
2013-01-13 20:43:00,19.1,15.0,30.20,West,280,1.0,9.0,82,0.00,,,0.04,weatherlink.com 1.10,2013-01-14 02:43:00,
2013-01-13 20:58:00,18.7,14.0,30.20,WSW,251,3.0,13.0,81,0.00,,,0.04,weatherlink.com 1.10,2013-01-14 02:58:00,
2013-01-13 21:13:00,18.5,14.0,30.20,WSW,248,4.0,15.0,81,0.00,,,0.04,weatherlink.com 1.10,2013-01-14 03:13:00,
2013-01-13 21:28:00,18.4,14.0,30.21,West,261,3.0,11.0,81,0.00,,,0.04,weatherlink.com 1.10,2013-01-14 03:28:00,
2013-01-13 21:43:00,18.1,14.0,30.22,WNW,283,2.0,11.0,82,0.00,,,0.04,weatherlink.com 1.10,2013-01-14 03:43:00,
2013-01-13 21:58:00,17.1,12.0,30.22,NW,325,5.0,15.0,79,0.00,,,0.04,weatherlink.com 1.10,2013-01-14 03:58:00,
2013-01-13 22:14:00,16.4,11.0,30.23,WSW,257,2.0,12.0,80,0.00,,,0.04,weatherlink.com 1.10,2013-01-14 04:14:00,
2013-01-13 22:29:00,16.2,11.0,30.24,NW,308,4.0,9.0,80,0.00,,,0.04,weatherlink.com 1.10,2013-01-14 04:29:00,
2013-01-13 22:44:00,15.9,11.0,30.24,NW,311,5.0,13.0,81,0.00,,,0.04,weatherlink.com 1.10,2013-01-14 04:44:00,
2013-01-13 22:59:00,15.7,11.0,30.25,WNW,289,2.0,9.0,81,0.00,,,0.04,weatherlink.com 1.10,2013-01-14 04:59:00,
2013-01-13 23:14:00,15.5,10.0,30.25,WSW,255,3.0,10.0,80,0.00,,,0.04,weatherlink.com 1.10,2013-01-14 05:14:00,
2013-01-13 23:29:00,15.4,11.0,30.27,WSW,250,3.0,8.0,81,0.00,,,0.04,weatherlink.com 1.10,2013-01-14 05:29:00,
2013-01-13 23:44:00,15.3,10.0,30.27,NW,306,0.0,7.0,80,0.00,,,0.04,weatherlink.com 1.10,2013-01-14 05:44:00,
2013-01-13 23:59:00,15.0,10.0,30.28,West,275,4.0,12.0,80,0.00,,,0.04,weatherlink.com 1.10,2013-01-14 05:59:00,